When you browse on this site, cookies collect data to enhance your experience and personalize the content and advertising you see.
Visit our Privacy Policy to learn more. By continuing to use the site, you agree to this use of cookies and data.
  • En España
  • Lista de países
  • Para 7 días
  • Temperatura del agua
  • Mapa Satelital
  • El tiempo en el mapa
  • Informadores
  • user-avatar
    Iniciar sesión

    Tiempo cada hora Barra

    Hoy, 20 Julio, Sábado

    Tiempo Temperatura Precipitaciones Viento Presión Humedad
    00:00 +13°C° 0 mm 2 mps 752 mmHg 69%
    01:00 +13°C° 0 mm 2 mps 752 mmHg 69%
    02:00 +13°C° 0 mm 2 mps 752 mmHg 70%
    03:00 +13°C° 0 mm 2 mps 752 mmHg 72%
    04:00 +13°C° 0 mm 2 mps 751 mmHg 72%
    05:00 +13°C° 0 mm 2 mps 752 mmHg 74%
    06:00 +13°C° 0 mm 2 mps 752 mmHg 76%
    07:00 +13°C° 0 mm 2 mps 752 mmHg 78%
    08:00 +15°C° 0 mm 2 mps 752 mmHg 76%
    09:00 +16°C° 0 mm 2 mps 753 mmHg 73%
    10:00 +19°C° 0 mm 3 mps 753 mmHg 72%
    11:00 +20°C° 0.1 mm 3 mps 752 mmHg 69%
    12:00 +20°C° 0.1 mm 3 mps 752 mmHg 67%
    13:00 +21°C° 0.1 mm 4 mps 752 mmHg 65%
    14:00 +21°C° 0 mm 4 mps 751 mmHg 64%
    15:00 +21°C° 0 mm 4 mps 751 mmHg 64%
    16:00 +21°C° 0 mm 4 mps 751 mmHg 63%
    17:00 +19°C° 0 mm 3 mps 751 mmHg 71%
    18:00 +17°C° 0 mm 3 mps 751 mmHg 80%
    19:00 +16°C° 0 mm 3 mps 751 mmHg 88%
    20:00 +15°C° 0 mm 2 mps 752 mmHg 89%
    21:00 +15°C° 0 mm 2 mps 752 mmHg 90%
    22:00 +15°C° 0 mm 2 mps 752 mmHg 91%
    23:00 +15°C° 0 mm 2 mps 752 mmHg 92%

    Mañana, 21 Julio, Domingo

    Tiempo Temperatura Precipitaciones Viento Presión Humedad
    00:00 +14°C° 0 mm 2 mps 752 mmHg 92%
    01:00 +14°C° 0 mm 2 mps 751 mmHg 93%
    02:00 +14°C° 0 mm 2 mps 751 mmHg 93%
    03:00 +14°C° 0 mm 2 mps 751 mmHg 93%
    04:00 +14°C° 0 mm 2 mps 751 mmHg 93%
    05:00 +14°C° 0 mm 2 mps 751 mmHg 93%
    06:00 +14°C° 0 mm 2 mps 751 mmHg 93%
    07:00 +14°C° 0 mm 2 mps 751 mmHg 92%
    08:00 +16°C° 0 mm 2 mps 751 mmHg 83%
    09:00 +19°C° 0 mm 2 mps 751 mmHg 73%
    10:00 +21°C° 0 mm 2 mps 752 mmHg 64%
    11:00 +22°C° 0 mm 3 mps 751 mmHg 62%
    12:00 +22°C° 0 mm 3 mps 750 mmHg 60%
    13:00 +24°C° 0 mm 3 mps 750 mmHg 58%
    14:00 +24°C° 0 mm 3 mps 749 mmHg 59%
    15:00 +22°C° 0 mm 3 mps 749 mmHg 60%
    16:00 +22°C° 0 mm 3 mps 749 mmHg 62%
    17:00 +20°C° 0 mm 3 mps 749 mmHg 70%
    18:00 +18°C° 0 mm 2 mps 749 mmHg 79%
    19:00 +17°C° 0 mm 2 mps 749 mmHg 88%
    20:00 +16°C° 0 mm 2 mps 750 mmHg 89%
    21:00 +16°C° 0 mm 2 mps 750 mmHg 91%
    22:00 +16°C° 0 mm 2 mps 751 mmHg 93%
    23:00 +15°C° 0 mm 2 mps 750 mmHg 93%

    Pasado mañana, 22 Julio, Lunes

    Tiempo Temperatura Precipitaciones Viento Presión Humedad
    00:00 +15°C° 0 mm 2 mps 750 mmHg 93%
    01:00 +15°C° 0 mm 2 mps 750 mmHg 94%
    02:00 +15°C° 0 mm 2 mps 750 mmHg 93%
    03:00 +16°C° 0 mm 2 mps 750 mmHg 92%
    04:00 +16°C° 0 mm 2 mps 750 mmHg 91%
    05:00 +16°C° 0 mm 2 mps 750 mmHg 92%
    06:00 +16°C° 0 mm 2 mps 750 mmHg 92%
    07:00 +16°C° 0 mm 3 mps 750 mmHg 92%
    08:00 +18°C° 0 mm 3 mps 750 mmHg 85%
    09:00 +20°C° 0 mm 3 mps 751 mmHg 77%
    10:00 +22°C° 0 mm 3 mps 751 mmHg 70%
    11:00 +24°C° 0 mm 3 mps 750 mmHg 67%
    12:00 +24°C° 0 mm 3 mps 750 mmHg 64%
    13:00 +25°C° 0 mm 3 mps 749 mmHg 61%
    14:00 +25°C° 0 mm 3 mps 749 mmHg 62%
    15:00 +24°C° 0 mm 3 mps 748 mmHg 64%
    16:00 +23°C° 0 mm 4 mps 748 mmHg 65%
    17:00 +22°C° 0 mm 3 mps 748 mmHg 75%
    18:00 +20°C° 0 mm 3 mps 749 mmHg 84%
    19:00 +18°C° 0 mm 3 mps 749 mmHg 93%
    20:00 +18°C° 0.2 mm 3 mps 750 mmHg 94%
    21:00 +18°C° 0.2 mm 3 mps 750 mmHg 94%
    22:00 +18°C° 0.2 mm 3 mps 750 mmHg 95%
    23:00 +18°C° 0.3 mm 3 mps 750 mmHg 94%

    23 Julio, Martes

    Tiempo Temperatura Precipitaciones Viento Presión Humedad
    00:00 +18°C° 0.3 mm 3 mps 750 mmHg 94%
    01:00 +18°C° 0.3 mm 3 mps 750 mmHg 93%
    02:00 +19°C° 0.5 mm 4 mps 750 mmHg 93%
    03:00 +19°C° 0.5 mm 4 mps 750 mmHg 93%
    04:00 +19°C° 0.5 mm 4 mps 750 mmHg 94%
    05:00 +19°C° 0.4 mm 4 mps 750 mmHg 94%
    06:00 +19°C° 0.4 mm 4 mps 751 mmHg 94%
    07:00 +18°C° 0.4 mm 4 mps 751 mmHg 95%
    08:00 +19°C° 0.2 mm 4 mps 751 mmHg 92%
    09:00 +19°C° 0.2 mm 4 mps 752 mmHg 90%
    10:00 +20°C° 0.2 mm 4 mps 752 mmHg 88%
    11:00 +20°C° 0.1 mm 4 mps 752 mmHg 86%
    12:00 +21°C° 0.1 mm 4 mps 751 mmHg 85%
    13:00 +21°C° 0.1 mm 4 mps 751 mmHg 83%
    14:00 +21°C° 0.1 mm 4 mps 751 mmHg 83%
    15:00 +21°C° 0.1 mm 4 mps 750 mmHg 83%
    16:00 +21°C° 0.1 mm 4 mps 750 mmHg 83%
    17:00 +21°C° 0.4 mm 4 mps 751 mmHg 87%
    18:00 +20°C° 0.4 mm 3 mps 751 mmHg 90%
    19:00 +20°C° 0.4 mm 3 mps 752 mmHg 94%
    20:00 +20°C° 0.4 mm 3 mps 752 mmHg 94%
    21:00 +19°C° 0.4 mm 3 mps 752 mmHg 94%
    22:00 +19°C° 0.4 mm 3 mps 753 mmHg 94%
    23:00 +19°C° 0.5 mm 3 mps 753 mmHg 95%

    24 Julio, Miércoles

    Tiempo Temperatura Precipitaciones Viento Presión Humedad
    00:00 +19°C° 0.5 mm 3 mps 753 mmHg 95%
    01:00 +19°C° 0.5 mm 3 mps 752 mmHg 95%
    02:00 +19°C° 0.6 mm 4 mps 752 mmHg 95%
    03:00 +19°C° 0.6 mm 4 mps 752 mmHg 94%
    04:00 +19°C° 0.6 mm 4 mps 752 mmHg 94%
    05:00 +19°C° 0.5 mm 4 mps 752 mmHg 94%
    06:00 +19°C° 0.5 mm 4 mps 753 mmHg 94%
    07:00 +19°C° 0.5 mm 4 mps 753 mmHg 93%
    08:00 +20°C° 0.4 mm 5 mps 753 mmHg 91%
    09:00 +20°C° 0.4 mm 5 mps 754 mmHg 89%
    10:00 +21°C° 0.4 mm 5 mps 754 mmHg 86%
    11:00 +21°C° 0.4 mm 5 mps 753 mmHg 85%
    12:00 +21°C° 0.4 mm 4 mps 753 mmHg 84%
    13:00 +21°C° 0.4 mm 4 mps 752 mmHg 83%
    14:00 +21°C° 0.2 mm 4 mps 752 mmHg 81%
    15:00 +21°C° 0.2 mm 4 mps 751 mmHg 79%
    16:00 +21°C° 0.2 mm 4 mps 751 mmHg 77%
    17:00 +20°C° 0.1 mm 4 mps 752 mmHg 81%
    18:00 +19°C° 0.1 mm 4 mps 752 mmHg 85%
    19:00 +18°C° 0.1 mm 3 mps 752 mmHg 90%
    20:00 +18°C° 0.1 mm 3 mps 753 mmHg 90%
    21:00 +18°C° 0.1 mm 3 mps 753 mmHg 90%
    22:00 +17°C° 0.1 mm 3 mps 753 mmHg 90%
    23:00 +17°C° 0.1 mm 3 mps 753 mmHg 91%

    25 Julio, Jueves

    Tiempo Temperatura Precipitaciones Viento Presión Humedad
    00:00 +17°C° 0.1 mm 3 mps 753 mmHg 91%
    01:00 +17°C° 0.1 mm 3 mps 752 mmHg 91%
    02:00 +17°C° 0.1 mm 4 mps 752 mmHg 91%
    03:00 +15°C° 0.1 mm 4 mps 752 mmHg 90%
    04:00 +15°C° 0.1 mm 4 mps 752 mmHg 90%
    05:00 +15°C° 0 mm 4 mps 752 mmHg 91%
    06:00 +15°C° 0 mm 4 mps 752 mmHg 91%
    07:00 +15°C° 0 mm 4 mps 753 mmHg 91%
    08:00 +17°C° 0 mm 4 mps 753 mmHg 84%
    09:00 +19°C° 0 mm 4 mps 753 mmHg 77%
    10:00 +20°C° 0 mm 4 mps 753 mmHg 70%
    11:00 +21°C° 0 mm 4 mps 753 mmHg 68%
    12:00 +21°C° 0 mm 4 mps 752 mmHg 66%
    13:00 +21°C° 0 mm 4 mps 752 mmHg 63%
    14:00 +21°C° 0 mm 4 mps 751 mmHg 65%
    15:00 +21°C° 0 mm 3 mps 751 mmHg 66%
    16:00 +21°C° 0 mm 3 mps 751 mmHg 68%
    17:00 +20°C° 0 mm 3 mps 751 mmHg 72%
    18:00 +19°C° 0 mm 3 mps 751 mmHg 76%
    19:00 +18°C° 0 mm 2 mps 752 mmHg 80%
    20:00 +18°C° 0 mm 2 mps 752 mmHg 80%
    21:00 +18°C° 0 mm 2 mps 752 mmHg 81%
    22:00 +18°C° 0 mm 2 mps 753 mmHg 81%
    23:00 +18°C° 0 mm 2 mps 752 mmHg 82%
    Mostrar más